Powrót do katalogu

BREEZE-M DEB

AktywnyHEO
NORAD 41323·DEBRIS·🇷🇺 Russia

Wystrzelony May 17, 2012 z Baikonur Cosmodrome

Loading…

Następne Przeloty (najbliższe 24 godziny)

TLE

ŚwieżeSource: Space-Track

Epoka: Sep 14, 2026, 18:37 UTC

1 41323U 12026K   26257.77604941 -.00000120  00000-0  00000-0 0  9998
2 41323  10.1715 123.0688 4134081  70.4056 329.0843  1.77768388 69471

Śledź BREEZE-M DEB w czasie rzeczywistym z AllMySat

Download on the App Store